This is the latest recevied weather packets stored in our database for station/object OK2ZAW-23. If no packets are shown the sender has not sent any weather packets the latest 1 day(s).
| Time | Temp. | Humidity | Pressure | Rain* | Wind** | Luminosity | Snow |
|---|---|---|---|---|---|---|---|
| 1777977340 | 22.78° C | 38% | 1005.2 hPa | - | 0 m/s | 336 W/m² | - |
| 1777976396 | 22.22° C | 39% | 1005.3 hPa | - | 0 m/s | 336 W/m² | - |
| 1777975454 | 21.67° C | 39% | 1005.4 hPa | - | 0 m/s | 336 W/m² | - |
| 1777975139 | 21.67° C | 39% | 1005.4 hPa | - | 0 m/s | 336 W/m² | - |
| 1777973882 | 21.11° C | 41% | 1005.6 hPa | - | 0 m/s | 336 W/m² | - |
| 1777972625 | 20.56° C | 41% | 1005.6 hPa | - | 0 m/s | 335 W/m² | - |
| 1777972311 | 20° C | 42% | 1005.6 hPa | - | 0 m/s | 335 W/m² | - |
| 1777971368 | 19.44° C | 42% | 1005.7 hPa | - | 0 m/s | 336 W/m² | - |
| 1777970740 | 19.44° C | 43% | 1005.7 hPa | - | 0 m/s | 335 W/m² | - |
| 1777970112 | 18.89° C | 43% | 1005.7 hPa | - | 0 m/s | 336 W/m² | - |
| 1777969798 | 18.89° C | 43% | 1005.7 hPa | - | 0 m/s | 335 W/m² | - |
| 1777969171 | 18.33° C | 44% | 1005.8 hPa | - | 0 m/s | 336 W/m² | - |
| 1777967914 | 17.78° C | 44% | 1006.1 hPa | - | 0 m/s | 335 W/m² | - |
| 1777967600 | 17.22° C | 45% | 1006.2 hPa | - | 0 m/s | 336 W/m² | - |
| 1777966973 | 17.22° C | 45% | 1006.1 hPa | - | 0 m/s | 335 W/m² | - |
| 1777966345 | 16.67° C | 45% | 1006.1 hPa | - | 0 m/s | 336 W/m² | - |
| 1777966031 | 16.67° C | 45% | 1006.1 hPa | - | 0 m/s | 336 W/m² | - |
| 1777965404 | 16.11° C | 46% | 1006.2 hPa | - | 0 m/s | 336 W/m² | - |
| 1777963521 | 15° C | 46% | 1006.4 hPa | - | 0 m/s | 335 W/m² | - |
| 1777962267 | 15° C | 46% | 1006.4 hPa | - | 0 m/s | 335 W/m² | - |
| 1777961639 | 15° C | 47% | 1006.4 hPa | - | 0 m/s | 335 W/m² | - |
| 1777961326 | 15° C | 47% | 1006.6 hPa | - | 0 m/s | 335 W/m² | - |
| 1777961012 | 15° C | 47% | 1006.5 hPa | - | 0 m/s | 335 W/m² | - |
| 1777960698 | 14.44° C | 47% | 1006.4 hPa | - | 0 m/s | 335 W/m² | - |
| 1777960385 | 14.44° C | 48% | 1006.6 hPa | - | 0 m/s | 335 W/m² | - |
* Rain since midnight (hover to see other rain measurements)
** Current wind speed in m/s (hover to see current wind gust speed)